CAPE
1236 1626 2230 2241 2193 241 234 161 346 302 535 527 524 554 849 817 1018 841 48 186 150 244 358 825 1895 1846 1939 2153 2160 1965 1907 1423 1614 1888 2091 1891 1893 1785 2148 1930 2000 1967 2077 2178 2204 2229 2351 2377 2218
2479 2255 2573 2858 1082 416 349 291 422 497 626 608 617 628 863 977 997 759 247 180 250 368 768 743 2123 2166 1939 2134 2175 2194 1668 1633 1910 2033 2012 2073 1959 2037 1860 1882 2134 2099 2003 2057 2077 2186 2485 2339 2272
3038 2434 3052 322 512 589 562 375 424 512 683 736 694 781 976 889 954 883 530 371 578 869 1279 1430 2064 2401 1869 1931 2044 2009 1920 1894 2022 2020 2143 1990 2001 1890 2040 2075 2102 2039 2144 2049 1926 2276 2026 2129 2248
3211 3601 1952 500 517 590 596 530 454 569 726 740 869 1001 1002 963 1203 1042 1083 917 1049 1161 1240 1533 2081 1915 1873 1941 1998 1954 1908 1938 1888 1861 1937 1875 1964 1951 2119 1988 2089 1988 2052 2016 2000 1973 2002 1896 1865
2992 1885 343 475 469 489 616 609 562 561 630 734 936 1119 1053 1025 1209 1425 1372 950 1217 1316 1313 1613 2766 2424 1890 1939 1861 2054 1965 2039 2228 2196 1977 2014 1858 1963 2013 1868 1863 1828 1955 1821 1928 2095 2002 1736 1870
1946 144 345 509 556 598 677 642 471 634 697 922 1024 1252 1031 1131 1174 1362 1399 1389 1288 1205 945 1461 2384 2445 2433 2060 1916 1970 1903 1957 1801 1964 1710 1869 1389 1291 1544 1738 1666 1609 1870 1878 1944 1818 1796 1709 1763
483 150 233 209 513 730 697 658 459 595 710 931 1016 1270 1215 950 1139 1106 1284 1279 1221 1047 719 735 1015 2009 2125 1962 1978 1932 1958 2065 1887 1832 1830 1641 1154 1344 1050 1094 1041 1383 1652 1670 1732 1907 1788 1656 1502
782 89 74 157 422 809 659 732 844 517 804 762 883 1084 1294 1090 984 1142 1296 1264 1379 1290 934 798 755 839 1233 1282 1786 1719 1723 1748 1570 1854 1834 1384 1205 1128 1084 736 973 1252 1261 1531 1185 1353 1416 1403 1594
369 189 366 264 418 730 813 866 765 579 697 842 863 949 1153 1098 1285 1344 1319 1541 1323 1114 517 473 442 459 415 1106 1729 1861 1817 1534 1759 1587 2124 1555 957 112 84 133 578 757 1066 1489 1192 1071 1246 1519 1651
78 259 489 419 577 662 647 764 721 771 797 845 729 988 1005 903 983 1111 1083 1153 985 672 314 417 344 288 586 1156 2521 1569 1651 931 1297 1798 1782 1133 787 603 540 308 589 330 247 801 1164 1148 1597 1369 241
77 217 547 661 740 766 604 596 699 659 782 806 789 961 861 871 886 929 877 617 342 354 228 210 444 793 1360 2032 889 659 1169 692 1865 1481 952 413 522 667 157 153 197 443 471 254 852 1070 642 161 172
85 352 514 780 724 568 607 235 228 549 492 767 770 832 870 862 795 634 464 361 105 76 139 244 700 1004 684 1798 964 1199 397 1244 1487 1309 1090 1068 288 225 251 146 60 64 191 346 429 210 556 1140 479
97 530 561 707 667 626 427 312 370 509 681 819 708 728 842 796 779 633 217 66 64 17 126 486 811 1474 1809 1754 869 1023 1054 311 1112 1255 993 375 579 590 388 978 159 53 0 339 509 465 804 383 114
244 472 663 815 801 631 601 553 420 560 692 798 758 940 934 867 882 829 660 719 502 172 91 263 975 2129 1352 1255 1159 984 1162 492 814 1419 1412 1465 1044 978 771 769 721 733 216 78 8 1022 902 643 233
228 424 659 757 864 740 890 500 574 610 691 813 913 945 951 964 887 921 941 915 883 850 610 541 1027 1536 1578 1290 1272 1814 1875 2091 1568 1592 709 1082 979 1137 907 1540 2002 878 333 85 0 529 537 373 91
150 203 507 556 875 1003 576 998 669 725 715 782 917 956 892 878 857 801 814 863 864 983 1075 892 819 1087 1733 1791 1841 1961 2448 1911 1883 1458 1353 1260 1367 1256 1631 1699 1977 1225 1334 308 87 35 92 166 113
62 0 232 431 678 900 959 1281 973 799 767 666 708 833 886 911 893 878 827 789 902 940 1111 1207 1317 1670 2048 1994 2836 2322 2182 2014 974 45 85 253 869 1071 1528 1443 1872 1736 2222 1487 1089 616 215 435 66
127 242 93 138 219 487 952 1126 1302 955 811 755 614 626 750 769 847 890 832 753 711 833 1173 1479 1574 1847 1908 2753 2889 2282 2074 2973 1785 946 495 573 644 432 586 233 963 1518 1481 1390 1532 1652 1428 1168 1053
173 148 129 111 1 103 370 582 1281 1191 1012 870 721 589 634 714 729 787 810 681 772 856 1058 1455 1563 2173 2328 2329 2511 3246 3182 2035 2273 1861 1597 1422 990 1065 1257 527 445 721 1252 1706 1744 1873 1792 1947 1662
64 174 190 95 23 151 295 321 505 1415 1206 1069 918 608 621 716 759 890 895 999 889 1173 1346 1671 1932 2206 2528 2279 2297 2108 2462 1522 1656 1847 2088 2130 1987 2168 2131 1314 2056 2237 2313 1817 1434 1361 2013 2004 2009
121 203 231 90 61 127 383 191 8 562 1376 1190 1122 908 535 794 955 1040 861 1084 1151 1433 1637 2163 2596 2956 2768 2334 2475 2437 2227 2255 1857 2375 2310 2402 2186 2328 2611 2505 2825 2657 2417 2134 1414 809 515 372 1896
132 120 55 29 130 214 192 293 360 132 1428 1376 1239 1142 919 709 1027 853 1394 1266 647 1487 1882 2527 2960 3212 2857 2693 2700 2917 2389 2442 2294 2284 2143 3204 2727 2545 2394 2227 2233 2249 2180 2248 1767 1552 504 1560 1546
130 60 20 19 95 149 259 304 380 330 1106 1396 1386 1257 1111 972 1100 1092 1380 456 955 1270 1880 2593 2911 2926 3088 3053 2327 2435 2176 2708 3454 2302 2682 2797 2622 2422 2335 2785 2465 2777 2193 2021 2065 1862 1726 1923 1567
28 2 8 0 83 196 133 279 292 178 490 859 1338 1367 1238 1181 1260 1457 1257 897 1048 1534 2021 2377 2537 2190 2376 2496 1698 1552 1805 2268 2330 2555 1390 1605 1296 1775 1884 1398 2172 2284 2510 2492 2524 2326 1842 1919 1821
3 4 17 50 133 172 123 91 240 434 632 659 775 1431 1385 1402 1535 1944 1711 1644 1622 1827 2075 2293 2309 2378 2149 890 835 1009 1742 1816 1980 1639 1426 1325 862 712 608 584 841 852 1267 1450 1879 2019 1979 2001 1612
0 0 7 78 126 270 29 75 367 526 1063 944 874 1293 1343 1515 1818 2118 1928 1781 1572 1895 2080 2127 2233 1670 1268 1412 1231 999 905 1000 858 961 794 746 561 386 185 120 159 190 218 367 790 1272 1486 1380 1494
0 0 0 1 43 126 224 23 48 794 1224 1259 1264 1178 1488 1592 2027 2126 1717 1690 1557 1600 1640 1769 1830 1692 1329 1323 1239 967 725 726 546 374 327 149 36 0 0 0 0 0 0 21 86 168 410 453 736
0 0 0 0 25 111 196 165 284 387 1072 1507 1364 1498 1812 1956 2063 1870 1638 1816 1692 1941 1800 1663 1683 1245 1021 861 969 644 468 275 118 37 0 0 0 0 0 1 1 2 4 6 6 13 99 20 39
0 0 0 1 12 61 139 268 123 16 648 1545 1641 1811 2009 2033 1941 1753 1791 1784 1743 1833 1669 1222 969 780 627 449 229 101 13 0 0 0 0 0 1 4 8 10 9 9 19 17 22 16 16 13 16
0 0 0 0 0 136 264 197 14 29 333 1445 1665 2005 2133 2015 1892 1949 2050 1738 1526 1622 1203 885 629 461 317 171 36 0 0 0 0 0 0 1 5 10 13 18 18 21 14 16 14 9 15 21 25
CIN
-269 -174 -72 -8 -19 0 0 0 0 -4 0 -1 -1 0 0 -1 -1 -3 -67 -26 -110 -72 -51 -5 0 -2 -4 -1 -1 -1 0 0 0 0 0 0 0 0 0 0 0 0 0 0 0 0 0 0 0
-49 -58 -23 -3 -26 0 0 0 0 0 0 0 0 -1 0 0 -1 0 -6 -76 -55 -16 -4 -3 -2 0 0 -1 0 0 0 0 0 0 0 0 0 0 0 0 0 0 0 0 0 0 0 0 0
-86 -81 -7 -1 0 0 0 0 0 0 0 -2 0 0 0 0 0 0 -23 -32 -4 0 0 0 0 0 0 0 0 0 0 0 0 0 0 0 0 -1 0 0 0 0 0 0 0 0 0 0 0
-1 -2 -15 0 0 0 0 0 0 0 0 0 0 -2 0 0 0 0 0 0 0 0 0 -8 0 0 0 0 0 0 0 0 0 0 0 0 0 -1 0 0 0 0 0 0 0 0 0 0 0
-15 -6 0 0 0 0 0 0 -1 0 0 0 0 0 -2 0 0 0 0 0 0 -4 0 0 0 0 0 0 0 0 0 0 0 -2 -1 0 -5 -2 -1 0 0 0 0 0 0 0 0 0 0
-4 -8 0 0 0 0 -1 -1 0 0 0 0 -5 0 -2 0 0 0 0 0 -1 -2 0 0 0 0 0 0 0 0 0 0 -1 -2 -1 -1 -6 -7 -6 0 -1 0 0 0 0 0 0 0 0
-1 -3 0 0 0 0 0 -1 0 0 0 0 0 0 0 -1 0 0 0 0 -2 0 0 0 0 -2 -1 0 0 0 0 0 0 -1 -1 -4 -4 -6 -27 -5 -9 -1 0 -1 0 0 0 0 0
-4 -23 -1 -1 -1 -1 -2 0 0 0 0 0 0 0 0 -1 0 -2 0 -1 0 -3 -1 0 -1 -1 0 0 0 0 0 0 -1 0 -2 -1 -8 -12 -13 -35 -5 -6 -1 0 0 0 0 0 0
-15 -13 0 0 0 -9 -1 0 -4 -11 0 0 0 -1 0 0 0 0 -1 0 -9 -1 0 0 -1 -3 0 0 -5 -3 -2 -3 -5 -6 -1 -14 -6 -46 -57 -33 -26 -4 -1 0 0 0 0 0 -2
-30 -8 0 -1 -2 -13 -4 0 0 0 0 0 0 0 -1 -4 0 0 0 0 0 -1 -3 0 0 0 0 -3 -7 -1 -3 0 0 -2 -5 -1 -1 -1 -3 -25 -15 -20 -23 -5 0 0 0 -1 -3
-24 -4 0 -10 -14 -18 -16 -5 0 0 0 0 -2 -11 -18 -5 0 0 0 0 -2 -1 -1 0 -1 0 -5 -11 0 -1 -3 -6 -7 -2 -3 -2 0 -6 -1 -72 -24 -29 -2 -1 -3 0 -1 -2 -1
-35 -1 -1 -10 -17 -23 -32 -43 -68 -40 -44 -3 -9 -8 -5 -1 0 0 0 -6 -37 -44 -2 0 0 -1 -1 -15 -8 -24 -1 -21 -8 -2 -5 0 -11 -5 -1 -3 -80 -24 -80 -33 -58 -27 -31 -7 -10
-29 0 -5 -12 -11 -17 -29 -52 -70 -83 -79 -27 -33 -15 0 0 0 0 0 -3 -13 -54 -14 -1 -1 -1 -7 -9 -20 -1 -1 -2 -19 -15 -22 0 -6 -13 -1 -2 -13 -56 0 -8 -22 -1 -1 -1 -3
-1 -2 -1 -4 -13 -20 -28 -48 -35 -85 -75 -80 -58 -5 0 0 0 -1 0 0 -1 -4 -4 -1 -1 -31 -2 -9 0 -1 -1 0 -4 -69 -13 -18 -16 -4 -1 0 -2 -4 -7 -30 -4 -5 -6 -12 -12
0 0 -6 -4 -11 -16 -1 -27 -58 -84 -88 -85 -54 -14 0 0 0 0 0 0 0 0 0 -1 0 -1 -7 0 0 -3 -27 -35 -10 -13 -82 -32 -9 -12 -5 0 0 -1 -36 -83 0 0 0 -16 -53
-7 0 0 -11 -8 -16 -10 -16 -72 -78 -69 -60 -56 -38 -26 -5 -1 0 0 0 -1 -1 0 -1 -1 -1 0 0 0 -17 -13 -12 -1 0 -13 -10 -2 0 0 0 0 0 -1 -26 -79 -100 -69 -65 -41
-15 0 -1 -1 -7 -7 -11 -4 -60 -68 -59 -56 -51 -52 -44 -18 -3 -1 0 0 -1 -1 -1 0 0 -3 -5 0 -3 -5 -2 -7 -11 -97 -74 -44 0 -1 0 0 -2 0 0 0 -1 -14 -34 -13 -71
-9 -2 -2 -1 0 -3 -1 -1 -33 -66 -52 -54 -47 -45 -38 -16 -7 -2 -1 0 -1 -1 -1 0 0 0 -1 -8 -3 0 0 0 0 -30 -58 -32 -35 -51 -17 -68 -2 0 0 0 0 0 0 0 -1
0 0 0 -1 -1 -17 -1 0 -1 -45 -45 -45 -43 -36 -16 -4 -6 -5 -1 -1 0 -1 -1 0 0 0 0 0 0 -1 -2 0 0 0 -6 -8 -10 -16 -1 -24 -55 -36 -2 -1 0 0 0 0 0
-2 -1 -1 -1 -23 -15 0 -8 0 -14 -37 -37 -22 -20 -4 -2 -5 -11 -3 -1 -1 0 -1 0 0 -2 -5 -1 0 -1 -1 -28 -9 -1 0 0 -8 0 0 -7 0 0 0 0 0 0 0 0 -1
0 0 -1 -3 -18 -1 -1 -105 -83 -23 -33 -31 -24 -12 -10 0 -2 -2 -2 0 -2 -2 -1 0 0 -3 -6 0 -2 -4 -2 0 -7 -1 0 0 -3 0 0 -3 0 0 0 0 -7 -11 -22 -30 -5
0 -6 -7 -10 -1 -17 -130 -2 -92 -228 -3 -24 -23 -8 -1 -2 0 -28 -17 -91 -38 0 -1 0 -2 -9 -17 -11 0 0 -1 0 0 0 -5 0 -1 0 -1 -9 -3 -2 0 0 0 0 -28 -1 0
0 -8 -23 -28 -8 0 0 -1 0 -29 0 -3 -26 -3 0 -1 0 -1 -33 -233 -1 -10 -1 0 -1 -9 -7 -15 0 -1 -3 -23 -15 0 0 0 0 0 0 0 0 0 0 0 0 0 0 0 0
-11 -8 -7 0 0 0 -24 -24 -9 -145 -2 -1 -1 -14 -3 -1 -2 -5 -22 -32 -1 -4 -3 -1 0 -18 -26 -30 -92 -4 -1 -5 -10 -10 -2 -1 -1 -2 0 -18 0 0 0 0 0 0 0 0 0
0 0 -6 -5 0 -15 -15 -93 -4 -4 -12 -10 -8 -11 -5 0 0 -2 -3 -30 -9 -7 -2 -7 -13 -1 -11 -100 -92 -57 -1 -5 -8 -14 -23 -25 -71 -64 -50 -39 -14 -10 0 -1 0 0 0 -1 -1
0 0 0 -5 -1 -64 -179 -117 0 -16 -25 -22 -26 -10 -11 0 0 -1 -29 -15 -29 -14 -6 -25 -12 -38 -52 -31 -21 -29 -35 -21 -37 -37 -37 -33 -59 -114 -185 -200 -165 -125 -91 -60 -2 -1 0 0 0
0 0 0 0 0 -1 -59 -77 -175 -12 -22 -24 -24 -27 -18 -15 -10 -21 -27 -25 -26 -41 -53 -44 -17 -18 -22 -15 -2 -5 -27 -40 -64 -90 -71 -115 -177 0 0 0 0 0 0 -207 -120 -55 -1 -4 -44
0 0 0 0 0 -2 -7 -3 0 -21 -14 -27 -25 -30 -45 -38 -32 -26 -39 -39 -28 -6 -28 -27 -10 -16 -25 -17 0 -17 -51 -122 -165 -119 0 0 0 0 0 0 0 0 0 0 0 -108 -57 -148 -206
0 0 0 0 0 0 0 -3 -236 -319 -149 -15 -25 -59 -71 -70 -71 -67 -55 -68 -39 -7 -40 -72 -83 -78 -67 -80 -117 -178 -109 0 0 0 0 0 0 0 0 0 0 0 0 0 0 0 0 0 0
0 0 0 0 0 -1 0 -85 -31 -216 -15 -12 -32 -76 -86 -86 -82 -67 -49 -80 -83 -38 -79 -113 -141 -139 -162 -206 -288 0 0 0 0 0 0 0 0 0 0 0 0 0 0 0 0 0 0 0 0
Wind_Speed
15 13 13 8 6 7 13 12 11 9 12 15 13 13 19 15 12 13 11 13 12 9 6 6 6 9 10 11 12 12 13 12 10 9 9 8 9 7 10 10 11 11 12 12 12 12 12 12 12
13 8 8 7 2 11 12 15 16 14 15 10 9 8 19 21 22 23 17 16 15 13 9 10 8 10 11 12 13 13 13 11 10 9 8 8 7 7 10 10 11 11 11 12 12 11 13 12 11
19 7 9 2 12 12 13 13 12 11 6 6 7 15 11 15 18 21 23 26 20 13 12 13 11 10 11 11 11 12 12 11 9 7 8 7 7 8 9 10 11 10 11 10 12 12 12 11 10
8 8 8 12 16 16 14 9 10 10 11 6 15 16 18 13 14 19 26 23 17 16 13 16 13 12 11 11 11 11 11 10 8 7 6 5 6 7 9 9 9 9 11 11 12 11 12 10 9
13 8 13 13 15 13 11 7 8 11 8 7 13 20 13 8 25 25 23 18 17 11 15 15 13 13 12 11 10 11 10 8 7 7 6 5 6 8 7 7 8 8 9 10 11 13 11 8 7
8 3 12 12 12 14 9 10 11 12 11 16 22 19 9 16 19 20 19 16 13 17 17 16 13 11 12 12 10 9 8 7 6 3 4 5 3 7 5 4 5 7 8 9 10 10 10 7 6
8 10 15 17 13 11 9 13 11 9 10 18 16 17 16 16 18 14 17 14 10 7 11 14 14 10 10 9 8 7 7 7 5 4 2 4 5 12 9 5 3 5 7 8 8 8 8 6 5
9 11 19 17 13 12 7 9 7 11 13 9 14 10 18 16 17 16 13 12 9 9 15 14 13 13 12 11 9 6 6 5 4 4 5 6 9 10 10 3 5 4 4 7 7 7 7 7 5
10 13 13 15 15 12 5 12 11 11 10 8 1 18 21 20 22 20 14 16 7 11 11 15 13 12 10 13 11 9 7 5 5 8 8 7 5 3 4 6 5 5 5 8 8 8 8 8 8
8 11 15 17 15 11 9 14 9 8 9 8 12 23 20 18 15 16 14 14 16 9 10 9 12 10 8 7 10 7 8 9 7 5 3 4 3 2 9 10 12 10 10 10 11 11 10 9 9
15 11 14 14 14 11 9 10 8 9 11 11 15 21 20 18 14 14 14 14 12 10 8 11 5 8 5 6 5 4 5 3 6 7 6 5 3 4 6 5 3 2 6 9 11 8 10 12 9
15 9 11 9 7 10 9 10 12 12 8 12 16 19 18 17 16 15 13 13 13 12 9 11 8 4 4 4 3 5 3 4 4 6 8 4 3 2 3 2 2 5 8 4 4 4 14 3 3
13 7 9 7 8 9 10 13 12 11 9 13 18 18 16 15 12 10 10 10 10 11 10 9 10 6 4 3 3 2 6 3 2 3 2 5 4 4 1 0 4 4 7 4 3 5 5 6 7
7 3 8 8 6 6 10 10 9 10 13 16 17 16 15 12 13 12 12 12 12 11 12 10 10 8 8 5 4 3 5 3 1 5 3 1 4 4 5 3 2 7 5 4 7 2 3 4 9
7 11 9 6 5 2 5 11 13 13 14 16 15 13 13 13 12 12 11 10 11 11 14 11 10 13 10 8 8 4 3 3 5 5 2 3 6 4 7 5 3 5 2 3 3 5 5 2 5
14 10 9 10 6 3 10 11 14 14 14 15 15 13 12 12 12 10 10 10 12 11 13 10 9 12 11 9 6 4 2 3 3 5 7 7 4 7 6 7 6 7 4 7 5 3 5 4 4
12 10 8 12 7 3 6 11 15 15 15 14 14 14 13 13 12 11 12 10 12 8 12 10 10 5 10 8 4 4 7 6 3 2 2 3 3 4 4 5 4 5 5 7 5 6 8 9 8
22 5 11 1 9 7 10 5 15 16 15 15 15 14 13 13 14 15 12 12 9 13 9 8 9 6 5 5 5 5 6 5 5 4 4 3 3 4 4 3 6 4 7 7 7 8 6 7 8
6 8 2 5 3 8 7 8 19 17 16 15 15 16 15 15 15 14 13 12 13 9 12 11 8 9 6 6 5 4 5 4 4 4 5 7 9 9 6 4 5 7 7 5 7 7 9 7 8
11 8 10 5 4 8 9 7 11 20 19 16 15 15 16 15 17 13 12 13 12 13 12 12 10 10 9 7 5 4 5 4 6 3 4 6 8 10 7 8 8 7 4 6 7 7 5 6 6
13 13 4 6 10 18 13 8 12 13 17 17 15 14 15 16 17 13 6 5 8 12 14 13 12 12 10 8 5 5 5 4 2 3 3 4 7 10 8 8 5 7 6 7 5 6 6 7 5
18 11 3 11 14 3 24 3 11 14 17 17 17 16 15 16 16 16 9 7 9 6 8 13 13 13 11 9 8 8 4 5 4 4 1 3 4 4 4 5 6 6 5 6 6 7 8 8 8
15 3 8 12 14 19 14 9 10 13 19 18 15 16 16 17 13 19 19 14 13 7 8 10 10 9 9 8 2 4 2 2 4 4 3 3 1 3 4 5 6 5 4 6 7 8 6 8 7
13 15 9 14 15 15 8 10 14 8 6 11 16 15 16 19 14 16 20 16 10 8 8 11 11 3 6 5 11 9 6 3 2 3 2 2 1 4 8 10 9 8 7 7 7 7 7 8 8
21 15 12 15 15 3 13 16 11 13 9 6 5 15 16 17 18 19 14 14 10 11 11 11 11 8 8 4 8 10 4 3 2 2 5 4 3 5 8 7 7 7 7 7 7 8 8 7 5
18 18 15 18 17 9 11 12 6 12 12 8 7 9 14 15 17 16 14 12 12 11 11 11 11 8 6 5 5 6 5 2 4 6 4 4 3 4 6 8 9 10 10 10 9 9 7 8 6
19 19 21 26 26 9 15 11 26 15 14 8 12 11 13 14 17 17 16 13 10 11 11 10 10 7 7 7 6 7 6 5 6 4 3 4 6 6 9 8 8 9 9 9 10 7 7 8 9
20 15 12 14 22 17 21 7 1 14 15 12 13 15 14 15 16 15 13 13 11 13 11 11 9 8 8 8 7 7 6 6 5 6 6 6 7 8 8 8 8 9 9 10 10 9 9 10 8
16 18 15 20 15 16 13 5 10 18 14 15 15 15 16 16 15 15 14 12 9 10 15 12 12 11 10 9 7 6 6 6 5 6 6 7 7 7 7 8 8 9 11 13 12 12 10 10 10
24 21 22 15 17 14 15 3 20 24 21 14 17 16 16 16 16 15 14 14 12 12 12 12 12 11 10 8 7 6 6 5 6 5 5 6 6 6 6 9 10 11 8 8 7 8 9 10 10
Wind_Direction
179 192 221 219 257 80 84 90 104 94 83 69 45 63 73 33 36 107 139 191 196 190 183 188 164 122 112 119 127 136 131 130 137 129 121 117 119 122 110 113 115 117 116 114 113 111 116 113 116
187 195 238 263 278 70 53 40 48 67 78 94 59 73 71 66 87 122 150 196 180 175 192 164 150 127 115 111 119 129 131 134 135 129 124 114 115 114 115 117 118 120 117 114 117 121 117 113 116
256 241 258 31 43 62 74 71 75 85 119 57 92 45 38 113 107 142 149 180 183 157 171 128 146 136 129 125 126 128 130 135 132 122 115 122 128 128 123 118 112 125 119 112 125 121 114 109 109
258 200 240 54 66 67 83 95 98 95 64 46 112 90 81 95 111 134 143 159 157 168 162 132 150 142 137 135 134 135 137 136 137 128 127 135 129 135 128 117 123 121 126 128 127 127 117 116 115
233 266 85 76 74 76 70 70 60 81 77 69 98 102 98 120 120 128 146 155 166 150 140 146 150 144 142 142 144 135 139 141 123 129 126 132 155 130 121 134 132 132 122 137 135 130 125 125 120
263 8 64 70 67 91 66 91 74 84 86 91 105 110 105 123 130 139 142 154 166 177 147 135 141 149 142 146 140 140 134 128 123 119 119 130 140 111 117 128 145 155 140 139 136 137 139 138 123
257 77 73 79 80 71 68 51 64 94 112 108 130 110 128 132 138 135 125 133 159 165 141 149 154 141 136 139 130 135 138 129 128 111 80 119 82 91 48 347 190 158 149 147 153 152 152 163 151
296 72 63 63 74 83 75 82 48 74 89 118 120 133 143 160 125 121 137 136 160 190 180 148 152 165 174 155 148 144 132 131 138 122 122 106 99 112 134 175 304 183 176 166 162 167 175 189 192
252 64 54 56 68 96 145 93 73 104 132 101 17 138 136 145 148 147 156 148 186 212 159 157 160 169 198 149 149 156 158 160 166 169 120 126 155 172 129 163 233 258 198 186 185 183 192 205 210
101 64 55 46 65 83 70 85 128 136 126 130 96 108 133 151 154 155 166 157 182 170 178 155 166 155 169 135 152 194 163 185 156 75 89 190 141 165 143 220 203 206 212 214 204 199 201 217 224
48 74 79 61 51 77 99 111 182 163 144 146 134 140 152 156 169 165 171 163 176 178 187 145 138 157 209 115 162 189 189 156 127 168 196 193 192 204 164 161 201 347 241 214 193 209 219 213 234
93 52 76 77 79 76 87 81 60 36 48 127 140 149 158 165 174 170 170 169 165 178 186 146 155 136 260 24 2 338 142 156 111 196 199 172 230 46 273 126 27 276 180 319 117 227 264 12 311
102 95 98 103 87 91 87 80 90 92 101 123 135 157 161 177 168 165 159 163 170 176 178 167 159 146 70 47 357 312 298 191 145 110 138 237 217 209 211 315 219 233 296 196 269 301 336 296 265
99 88 121 136 117 113 127 135 123 116 126 132 150 163 169 173 170 161 181 172 176 177 173 177 154 123 168 126 111 201 236 217 293 42 110 16 309 299 284 240 263 230 211 281 296 198 264 282 277
172 159 158 140 152 159 175 140 112 140 146 149 163 172 170 181 175 168 183 183 178 180 152 175 188 164 188 206 190 198 348 99 192 191 164 199 220 238 262 265 243 261 208 233 287 282 276 302 278
218 259 158 117 147 184 254 114 138 156 160 162 169 172 177 185 179 180 184 185 166 180 149 181 191 170 170 176 192 112 308 247 237 207 195 191 231 253 229 241 230 233 213 218 218 231 246 239 238
218 189 89 146 154 167 266 135 161 173 173 169 174 171 181 183 197 178 172 198 161 201 158 189 173 162 158 181 135 192 191 218 203 117 325 31 250 243 259 254 288 256 223 237 219 217 230 223 227
301 112 125 19 124 195 191 221 166 187 188 181 178 167 178 179 190 170 193 185 199 163 173 199 166 187 171 131 146 207 209 209 236 220 217 204 254 256 264 293 294 264 268 238 227 241 221 244 244
309 336 50 96 116 274 235 232 161 188 199 191 187 172 178 183 172 166 182 181 175 195 172 175 193 153 192 188 189 184 218 216 231 223 230 224 241 220 262 267 265 253 253 302 280 256 261 252 241
254 246 240 212 207 261 263 9 188 176 204 200 195 180 178 182 153 168 179 171 192 178 178 174 180 177 199 188 196 195 184 210 230 262 219 254 262 275 260 212 252 291 279 246 262 265 286 247 235
244 252 301 325 300 256 317 79 269 279 193 205 199 196 184 181 167 136 195 156 265 174 176 171 179 171 191 182 175 187 176 205 209 259 228 256 251 262 292 297 290 281 268 286 288 260 286 292 257
258 232 198 266 279 255 214 236 164 268 199 200 197 190 192 185 167 143 142 75 221 229 165 163 174 173 179 185 181 205 225 207 130 196 166 286 195 254 248 269 280 291 297 274 271 247 231 253 280
255 141 289 288 285 281 295 321 179 194 181 186 203 201 194 172 192 162 137 176 216 184 184 156 164 170 155 167 200 195 206 18 138 159 175 145 219 298 338 347 332 301 274 298 286 285 285 284 283
252 260 261 258 260 264 60 295 138 134 137 156 180 203 195 167 182 135 156 175 194 131 147 149 151 109 153 144 105 346 292 211 257 121 178 120 58 124 40 357 359 347 347 335 308 291 280 289 296
236 234 243 237 234 211 355 315 117 142 113 129 187 176 187 175 161 146 138 166 149 157 156 143 140 152 127 122 142 173 242 326 325 296 57 44 59 14 26 342 345 342 345 335 338 322 300 293 283
212 238 245 252 255 52 41 263 114 105 107 125 146 164 177 172 153 148 158 159 155 145 146 132 143 145 163 169 173 151 174 140 63 50 70 58 48 51 17 355 351 347 342 339 342 324 329 325 320
234 217 245 259 268 210 168 200 273 140 125 137 147 159 157 159 153 157 166 154 147 132 142 138 136 128 152 142 136 143 145 115 91 72 24 33 34 14 23 357 352 351 346 345 342 314 351 356 343
250 263 227 246 262 272 263 211 334 174 138 146 146 148 146 153 151 157 162 138 162 144 122 124 126 126 127 120 127 105 102 87 83 64 48 42 31 25 14 360 356 353 360 359 349 349 344 348 331
216 238 250 270 234 262 264 200 100 56 283 158 153 149 154 153 158 155 147 147 145 139 117 131 129 139 135 114 109 101 91 83 68 68 51 36 41 20 13 4 3 1 13 9 2 345 354 343 350
250 218 234 244 252 260 287 163 213 186 207 154 146 148 150 155 152 148 137 144 145 131 138 135 145 138 118 122 123 113 100 89 79 59 70 45 43 30 32 23 9 23 3 357 357 344 343 344 334